sat.trackr.live / text

‹ back to catalog

STARLINK-5193

NORAD 54095 · 2022-136AW

PAYLOAD ACTIVE UNKNOWN

§ Identity

Operator
Country
US
Launch date
2022-10-20
Launch site
AFETR
Launch vehicle
Mass (kg)
RCS (m²)

Purposes: comms

External: N2YO · Heavens-Above · Gunter

§ Orbital elements

Epoch: 2026-09-20T22:00:03.000096Z

Period
94.87 min
Inclination
53.1606°
Eccentricity
0.0001596
Mean motion
15.17870434 rev/d
Perigee alt
511.2 km
Apogee alt
513.4 km
Semi-major
6,890.4 km
B*
3.2909e-4
RAAN
176.3640°
Arg perigee
68.5497°
Mean anomaly
33.8327°
Rev number
569

§ Raw data

STARLINK-51931 54095U 22136AW  26263.91670139  .00006438  00000+0  32909-3 0  99982 54095  53.1606 176.3640 0001596  68.5497  33.8327 15.17870434  5699

JSON: /api/v1/satellites/54095 · /tle

For live sub-satellite position, see the globe view (requires WebGL).

§ Visibility from observer

Set your observer location to see the next 7 days of passes ≥ 10°. The values pass through the URL so the page stays shareable.

No JS? Fill the form by hand. The geolocation button needs JavaScript.